ONEWEB-0372 (49298 NORAD) Tracking and Keplerian Element Data

This shows tracking and keplerian element data for the satellite.

Feedback or suggestion? Click here.




ElementValue
Catalog49298
NameONEWEB-0372
Epoch Orbit356
Epoch Day339.91667824
Epoch Year2021
RAAN274.9802
Inclination87.2041
Eccentricity0.0013968
Argument of Perigee82.4902
Mean Anonmoly4.1919
Mean Motion14.90977187
Decay Rate-0.00050882
L11 49298U 21090V 21339.91667824 -.00050882 00000+0 -51894-2 0 9998
L22 49298 87.2041 274.9802 0013968 82.4902 4.1919 14.90977187 3561

Live tracking and technical data element details for ONEWEB-0372 (NORAD 49298). ONEWEB-0372 can be tracked NOW for your location showing map with azimuth and elevation plus other details from your city location.

Track the satellite on the map from your city or location and see movement details for azimuth, elevation, latitude, longitude, range, height, and movement on the map or in text.







IsCatalogInMostPopularTable: catalog: 49298, numindb: 7
Update: records affected: 1



GetName: 49298 ONEWEB-0372

Hit Count: updated at: Mon, 06 Dec 2021 14:01:22 GMT